Starlink 3139

operational
NORAD ID: 49425 Int'l Des: 2021-104 Owner: SPXS Country: US Constellation: starlink
LEOCIRCULAR

Starlink 3139について

説明を読み込み中...

リアルタイム位置

3D地球を読み込み中...

次回通過

高度履歴

Altitude vs Time

uPlot chart will show altitude changes over time

軌道要素

1 49425U 21104T 25303.84553901 .00000148 00000-0 27357-4 0 9991
2 49425 53.2163 92.0212 0001304 81.9112 278.2028 15.08840738219030
Epoch: Oct 30, 2025 • Age: 11 hours

現在のステータス

高度 559.2 km
速度 7.58 km/s
衛星直下点 -53.25°S, 140.16°W
打ち上げ日 Nov 13, 2021
運用期間 3.9 years
タイプ internet

技術仕様

分類 Payload
質量 290.00 kg
乾燥質量 270.00 kg
総質量 290.00 kg
長さ 0.20 m
直径 2.80 m
スパン 9.00 m
形状 Box + pan
製造者 SPXS
バスタイプ Starlink
フェーズステータス In Orbit
所有者/国 SPXS/US

大規模コンステレーション

Loading constellations...